Location: Kellogg
(38.0159°N, 90.0546°W)
Time: 02:34:29
(UTC+00:00)

Transit 2A - Pass Details

Date: 17 September 2024
Orbit: 590 x 960 km, 66.7° (Epoch: 09 October)

Event Time Altitude Azimuth Distance (km) Brightness Sun altitude
Rises 10:29:50 0° 317° (NW) 3,586 9.2 -15.3°
Reaches altitude 10° 10:33:05 10° 301° (WNW) 2,593 8.3 -14.6°
Maximum altitude 10:37:18 20° 257° (WSW) 1,897 7.4 -13.8°
Drops below altitude 10° 10:41:18 10° 211° (SSW) 2,423 8.2 -13.1°
Sets 10:44:14 0° 195° (SSW) 3,279 9.0 -12.5°
